DW8851 Weather Reports


Display with metric or nautical units.
time (UTC)temp
F
wind
direction
speed
MPH
gust
MPH
rain 1hr
in
rain 24hr
in
rain mn
in
humidity
%
barometer
mb
20260504081509 40 360 0.0 0.0 0.00 0.00 0.00 78 1011.0
20260504044545 40 360 0.0 0.0 0.00 0.00 0.00 76 1011.5
20260504043146 40 360 0.0 0.0 0.00 0.00 0.00 76 1011.4
20260504041542 41 360 0.0 0.0 0.00 0.00 0.00 75 1011.4
20260504040039 41 360 0.0 0.0 0.00 0.00 0.00 74 1011.4
20260504034538 41 360 0.0 0.0 0.00 0.00 0.00 73 1011.3
20260504033040 42 360 0.0 0.0 0.00 0.00 0.00 72 1011.1
20260504031541 42 360 0.0 0.0 0.00 0.00 0.00 71 1010.9
20260504030040 42 360 0.0 0.0 0.00 0.00 0.00 71 1010.9
20260504024537 43 360 0.0 0.0 0.00 0.00 0.00 70 1011.0
20260504023037 44 360 0.0 0.0 0.00 0.00 0.00 68 1010.9
20260504021536 44 360 0.0 0.0 0.00 0.00 0.00 67 1010.8
20260504020035 45 360 0.0 0.0 0.00 0.00 0.00 64 1010.7
20260504014539 46 360 0.0 0.0 0.00 0.00 0.00 62 1010.6
20260504013042 47 360 0.0 1.0 0.00 0.00 0.00 61 1010.5
20260504011537 47 360 0.0 1.0 0.00 0.00 0.00 58 1010.4
20260504010036 48 360 0.0 1.0 0.00 0.00 0.00 55 1010.2
20260504004532 50 360 0.0 0.0 0.00 0.00 0.00 51 1009.9
20260504003036 51 360 0.0 1.0 0.00 0.00 0.00 41 1009.8
20260504001538 52 360 0.0 4.0 0.00 0.00 0.00 39 1009.3
20260504000032 52 360 0.0 1.0 0.00 0.00 0.00 40 1009.2
20260503234532 52 360 0.0 2.0 0.00 0.00 0.00 40 1009.0
20260503233030 53 360 0.0 2.0 0.00 0.00 0.00 38 1008.8
20260503231530 54 360 0.0 2.0 0.00 0.00 0.00 38 1008.8
20260503230029 55 360 1.0 5.0 0.00 0.00 0.00 36 1008.7
20260503224529 56 360 1.0 8.0 0.00 0.00 0.00 36 1008.7
20260503223028 56 360 1.0 6.0 0.00 0.00 0.00 37 1008.7
20260503221527 56 360 1.0 6.0 0.00 0.00 0.00 37 1008.7
20260503220027 56 360 1.0 8.0 0.00 0.00 0.00 38 1008.8
20260503214527 55 360 1.0 9.0 0.00 0.00 0.00 39 1008.9
20260503213024 55 360 2.0 11.0 0.00 0.00 0.00 40 1008.9
20260503211524 54 360 4.0 13.0 0.00 0.00 0.00 40 1009.0
20260503210023 54 360 3.0 9.0 0.00 0.00 0.00 40 1008.7
20260503204522 54 360 1.0 6.0 0.00 0.00 0.00 42 1008.8
20260503203024 54 360 2.0 6.0 0.00 0.00 0.00 43 1008.8
20260503201523 53 360 1.0 9.0 0.00 0.00 0.00 43 1008.8
20260503200022 54 360 2.0 8.0 0.00 0.00 0.00 42 1008.7
20260503194521 54 360 2.0 8.0 0.00 0.00 0.00 43 1008.7
20260503193020 54 360 2.0 12.0 0.00 0.00 0.00 42 1008.7
20260503191530 54 360 2.0 9.0 0.00 0.00 0.00 44 1008.7
20260503190018 54 360 2.0 6.0 0.00 0.00 0.00 43 1008.6
20260503184518 54 360 2.0 13.0 0.00 0.00 0.00 43 1008.8
20260503183017 54 360 3.0 13.0 0.00 0.00 0.00 44 1008.7
20260503181517 54 360 2.0 10.0 0.00 0.00 0.00 42 1008.8
20260503180017 54 360 2.0 9.0 0.00 0.00 0.00 43 1008.7
20260503174516 55 360 4.0 12.0 0.00 0.00 0.00 45 1008.7
20260503173015 55 360 3.0 13.0 0.00 0.00 0.00 45 1008.7
20260503171513 54 360 4.0 10.0 0.00 0.00 0.00 45 1008.6